Location: ????????
(55.4000°N, 39.1167°E)
Time: 08:04:19
(UTC+00:00)

Cosmos 2360 Rocket - Pass Details

Date: 19 May 2025
Orbit: 834 x 842 km, 71.0° (Epoch: 23 June)

Event Time Altitude Azimuth Distance (km) Brightness Sun altitude
Rises 21:26:36 0° 324° (NW) 3,395 6.2 -14.6°
Reaches altitude 10° 21:29:06 10° 320° (NW) 2,457 5.3 -14.6°
Maximum altitude 21:34:31 50° 246° (WSW) 1,056 2.5 -14.6°
Enters shadow 21:37:57 22° 181° (S) 1,761 3.2 -14.5°
